Hourly Data Report for September 25, 2016

All times are specified in Local Standard Time (LST). Add 1 hour to adjust for Daylight Saving Time where and when it is observed.

CHARLOTTETOWN A
PRINCE EDWARD ISLAND

46°17'21.000" N
63°07'09.000" W
48.50 m
8300301
71706
YYG

Download Data

Hourly Data (September 2016)
Hourly Data Report for September 25, 2016
Temp Definition
°C
Dew Point Temp Definition
°C
Rel Hum Definition
%
Wind Dir Definition
10's deg

Wind Spd Definition
km/h
Visibility Definition
km
Stn Press Definition
kPa
Hmdx Definition


Wind Chill Definition


Weather Definition


TIME
00:00 Legend Double Dagger 7.2 2.9 74 29 13 24.1 100.41     LegendNANA
01:00 Legend Double Dagger 7.3 3.0 74 29 16 24.1 100.37     LegendNANA
02:00 Legend Double Dagger 6.7 4.4 85 30 14 24.1 100.35     Cloudy
03:00 Legend Double Dagger 6.5 5.0 90 31 13 24.1 100.31     LegendNANA
04:00 Legend Double Dagger 6.5 4.2 85 32 9 24.1 100.26     Rain
05:00 Legend Double Dagger 6.6 4.6 87 32 18 24.1 100.26     Cloudy
06:00 Legend Double Dagger 5.8 4.1 89 33 9 24.1 100.30     LegendNANA
07:00 Legend Double Dagger 6.2 4.2 87 30 14 24.1 100.29     Rain Showers
08:00 Legend Double Dagger 7.7 5.5 86 29 16 24.1 100.29     Rain Showers
09:00 Legend Double Dagger 7.8 5.8 87 28 9 24.1 100.31     Rain Showers
10:00 Legend Double Dagger 9.8 5.2 73 34 16 24.1 100.31     LegendNANA
11:00 Legend Double Dagger 10.6 4.8 67 33 23 24.1 100.31     Mostly Cloudy
12:00 Legend Double Dagger 9.1 6.2 82 34 18 24.1 100.35     Rain Showers
13:00 Legend Double Dagger 9.4 4.4 71 32 22 24.1 100.37     Rain Showers
14:00 Legend Double Dagger 10.0 4.6 69 33 21 24.1 100.39     Rain Showers
15:00 Legend Double Dagger 11.4 3.7 59 35 25 24.1 100.40     LegendNANA
16:00 Legend Double Dagger 9.9 3.9 66 36 16 24.1 100.43     Rain Showers
17:00 Legend Double Dagger 8.0 3.7 74 34 17 24.1 100.46     Mostly Cloudy
18:00 Legend Double Dagger 7.7 5.2 84 31 16 24.1 100.50     Rain Showers
19:00 Legend Double Dagger 8.6 4.4 75 34 15 24.1 100.54     LegendNANA
20:00 Legend Double Dagger 9.0 4.3 72 33 14 24.1 100.59     Mostly Cloudy
21:00 Legend Double Dagger 8.7 5.5 80 34 12 24.1 100.62     Rain
22:00 Legend Double Dagger 9.9 4.1 67 35 20 24.1 100.63     LegendNANA
23:00 Legend Double Dagger 9.8 4.0 67 33 19 24.1 100.64     Cloudy

Notes on Data Quality.

Legend

  • E = Estimated
  • M = Missing
  • NA = Not Available
  • ‡ = Partner data that is not subject to review by the National Climate Archives
Date modified: